timestamp,wind_dir_avg,wind_spd_avg,wind_spd_max_dir,wind_spd_gust,battery_voltage,lat,long
2024-04-17 00:04:00+00:00,315.0,0.01,208.0,0.0,12.17,47.59359,-54.27349
2024-04-17 00:14:00+00:00,315.0,0.01,208.0,0.0,12.17,47.59359,-54.27349
2024-04-17 00:24:00+00:00,315.0,0.01,208.0,0.0,12.17,47.59359,-54.27349
2024-04-17 00:34:00+00:00,315.0,0.01,208.0,0.0,12.17,47.59359,-54.27349
2024-04-17 00:44:00+00:00,315.0,0.01,208.0,0.0,12.17,47.59359,-54.27349
2024-04-17 00:54:00+00:00,315.0,0.01,208.0,0.0,12.17,47.59359,-54.27349
2024-04-17 01:04:00+00:00,315.0,0.01,208.0,0.0,12.17,47.59359,-54.27349
2024-04-17 01:14:00+00:00,315.0,0.01,208.0,0.0,12.17,47.59359,-54.27349
2024-04-17 01:24:00+00:00,315.0,0.01,208.0,0.0,12.17,47.59359,-54.27349
2024-04-17 01:34:00+00:00,315.0,0.01,208.0,0.0,12.17,47.59359,-54.27349
2024-04-17 01:44:00+00:00,315.0,0.01,208.0,0.0,12.17,47.59359,-54.27349
2024-04-17 01:54:00+00:00,315.0,0.01,208.0,0.0,12.17,47.59359,-54.27349
2024-04-17 02:04:00+00:00,315.0,0.01,208.0,0.0,12.17,47.59359,-54.27349
2024-04-17 02:14:00+00:00,315.0,0.01,208.0,0.0,12.17,47.59359,-54.27349
2024-04-17 02:24:00+00:00,315.0,0.01,208.0,0.0,12.17,47.59359,-54.27349
2024-04-17 02:34:00+00:00,315.0,0.01,208.0,0.0,12.17,47.59359,-54.27349
2024-04-17 02:44:00+00:00,315.0,0.01,208.0,0.0,12.17,47.59359,-54.27349
2024-04-17 02:54:00+00:00,315.0,0.01,208.0,0.0,12.17,47.59359,-54.27349
2024-04-17 03:04:00+00:00,315.0,0.01,208.0,0.0,12.17,47.59359,-54.27349
2024-04-17 03:14:00+00:00,315.0,0.01,208.0,0.0,12.17,47.59359,-54.27349
2024-04-17 03:24:00+00:00,315.0,0.01,208.0,0.0,12.17,47.59359,-54.27349
2024-04-17 03:34:00+00:00,315.0,0.01,208.0,0.0,12.17,47.59359,-54.27349
2024-04-17 03:44:00+00:00,315.0,0.01,208.0,0.0,12.17,47.59359,-54.27349
2024-04-17 03:54:00+00:00,315.0,0.01,208.0,0.0,12.17,47.59359,-54.27349
2024-04-17 04:04:00+00:00,315.0,0.01,208.0,0.0,12.17,47.59359,-54.27349
2024-04-17 04:14:00+00:00,315.0,0.01,208.0,0.0,12.17,47.59359,-54.27349
2024-04-17 04:24:00+00:00,315.0,0.01,208.0,0.0,12.17,47.59359,-54.27349
2024-04-17 04:34:00+00:00,315.0,0.01,208.0,0.0,12.17,47.59359,-54.27349
2024-04-17 04:44:00+00:00,315.0,0.01,208.0,0.0,12.17,47.59359,-54.27349
2024-04-17 04:54:00+00:00,315.0,0.01,208.0,0.0,12.17,47.59359,-54.27349
2024-04-17 05:04:00+00:00,315.0,0.01,208.0,0.0,12.17,47.59359,-54.27349
2024-04-17 05:14:00+00:00,315.0,0.01,208.0,0.0,12.09,47.59359,-54.27349
2024-04-17 05:24:00+00:00,315.0,0.01,208.0,0.0,12.09,47.59359,-54.27349
2024-04-17 05:34:00+00:00,315.0,0.01,208.0,0.0,12.09,47.59359,-54.27349
2024-04-17 05:44:00+00:00,315.0,0.01,208.0,0.0,12.09,47.59359,-54.27349
2024-04-17 05:54:00+00:00,315.0,0.01,208.0,0.0,12.09,47.59359,-54.27349
2024-04-17 06:04:00+00:00,315.0,0.01,208.0,0.0,12.09,47.59359,-54.27349
2024-04-17 06:14:00+00:00,315.0,0.01,208.0,0.0,12.09,47.59359,-54.27349
2024-04-17 06:24:00+00:00,315.0,0.01,208.0,0.0,12.09,47.59359,-54.27349
2024-04-17 06:34:00+00:00,315.0,0.01,208.0,0.0,12.09,47.59359,-54.27349
2024-04-17 06:44:00+00:00,315.0,0.01,208.0,0.0,12.09,47.59359,-54.27349
2024-04-17 06:54:00+00:00,315.0,0.01,208.0,0.0,12.09,47.59359,-54.27349
2024-04-17 07:04:00+00:00,315.0,0.01,208.0,0.0,12.09,47.59359,-54.27349
2024-04-17 07:14:00+00:00,315.0,0.01,208.0,0.0,12.09,47.59359,-54.27349
2024-04-17 07:24:00+00:00,315.0,0.01,208.0,0.0,12.09,47.59359,-54.27349
2024-04-17 07:34:00+00:00,315.0,0.01,208.0,0.0,12.09,47.59359,-54.27349
2024-04-17 07:44:00+00:00,315.0,0.01,208.0,0.0,12.09,47.59359,-54.27349
2024-04-17 07:54:00+00:00,315.0,0.01,208.0,0.0,12.09,47.59359,-54.27349
2024-04-17 08:04:00+00:00,315.0,0.01,208.0,0.0,12.09,47.59359,-54.27349
2024-04-17 08:14:00+00:00,315.0,0.01,208.0,0.0,12.01,47.59359,-54.27349
2024-04-17 08:24:00+00:00,315.0,0.01,208.0,0.0,12.01,47.59359,-54.27349
2024-04-17 08:34:00+00:00,315.0,0.01,208.0,0.0,12.01,47.59359,-54.27349
2024-04-17 08:44:00+00:00,315.0,0.01,208.0,0.0,12.01,47.59359,-54.27349
2024-04-17 08:54:00+00:00,315.0,0.01,208.0,0.0,12.01,47.59359,-54.27349
2024-04-17 09:04:00+00:00,315.0,0.01,208.0,0.0,12.01,47.59359,-54.27349
2024-04-17 09:14:00+00:00,315.0,0.01,208.0,0.0,12.01,47.59359,-54.27349
2024-04-17 09:24:00+00:00,315.0,0.01,208.0,0.0,12.01,47.59359,-54.27349
2024-04-17 09:34:00+00:00,315.0,0.01,208.0,0.0,12.01,47.59359,-54.27349
2024-04-17 09:44:00+00:00,315.0,0.01,208.0,0.0,12.01,47.59359,-54.27349
2024-04-17 09:54:00+00:00,315.0,0.01,208.0,0.0,12.01,47.59359,-54.27349
2024-04-17 10:04:00+00:00,315.0,0.01,208.0,0.0,12.01,47.59359,-54.27349
2024-04-17 10:14:00+00:00,315.0,0.01,208.0,0.0,12.01,47.59359,-54.27349
2024-04-17 10:24:00+00:00,315.0,0.01,208.0,0.0,12.01,47.59359,-54.27349
2024-04-17 10:34:00+00:00,315.0,0.01,208.0,0.0,12.01,47.59359,-54.27349
2024-04-17 10:44:00+00:00,315.0,0.01,208.0,0.0,12.01,47.59359,-54.27349
2024-04-17 10:54:00+00:00,315.0,0.01,208.0,0.0,12.01,47.59359,-54.27349
2024-04-17 11:04:00+00:00,315.0,0.01,208.0,0.0,12.01,47.59359,-54.27349
2024-04-17 11:14:01+00:00,315.0,0.01,208.0,0.0,12.57,47.59359,-54.27349
2024-04-17 11:24:01+00:00,315.0,0.01,208.0,0.0,12.57,47.59359,-54.27349
2024-04-17 11:34:01+00:00,315.0,0.01,208.0,0.0,12.57,47.59359,-54.27349
2024-04-17 11:44:01+00:00,315.0,0.01,208.0,0.0,12.57,47.59359,-54.27349
2024-04-17 11:54:01+00:00,315.0,0.01,208.0,0.0,12.57,47.59359,-54.27349
2024-04-17 12:04:01+00:00,315.0,0.01,208.0,0.0,12.57,47.59359,-54.27349
2024-04-17 12:14:00+00:00,315.0,0.01,208.0,0.0,13.6,47.59359,-54.27349
2024-04-17 12:24:00+00:00,315.0,0.01,208.0,0.0,13.6,47.59359,-54.27349
2024-04-17 12:34:00+00:00,315.0,0.01,208.0,0.0,13.6,47.59359,-54.27349
2024-04-17 12:44:00+00:00,315.0,0.01,208.0,0.0,13.6,47.59359,-54.27349
2024-04-17 12:54:00+00:00,315.0,0.01,208.0,0.0,13.6,47.59359,-54.27349
2024-04-17 13:04:00+00:00,315.0,0.01,208.0,0.0,13.6,47.59359,-54.27349
2024-04-17 13:14:00+00:00,315.0,0.01,208.0,0.0,13.6,47.59359,-54.27349
2024-04-17 13:24:00+00:00,315.0,0.01,208.0,0.0,13.6,47.59359,-54.27349
2024-04-17 13:34:00+00:00,315.0,0.01,208.0,0.0,13.6,47.59359,-54.27349
2024-04-17 13:44:00+00:00,315.0,0.01,208.0,0.0,13.6,47.59359,-54.27349
2024-04-17 13:54:00+00:00,315.0,0.01,208.0,0.0,13.6,47.59359,-54.27349
2024-04-17 14:04:00+00:00,315.0,0.01,208.0,0.0,13.6,47.59359,-54.27349
2024-04-17 14:14:00+00:00,315.0,0.01,208.0,0.0,13.68,47.59359,-54.27349
2024-04-17 14:24:00+00:00,315.0,0.01,208.0,0.0,13.68,47.59359,-54.27349
2024-04-17 14:34:00+00:00,315.0,0.01,208.0,0.0,13.68,47.59359,-54.27349
2024-04-17 14:44:00+00:00,315.0,0.01,208.0,0.0,13.68,47.59359,-54.27349
2024-04-17 14:54:00+00:00,315.0,0.01,208.0,0.0,13.68,47.59359,-54.27349
2024-04-17 15:04:00+00:00,315.0,0.01,208.0,0.0,13.68,47.59359,-54.27349
2024-04-17 15:14:01+00:00,315.0,0.01,208.0,0.0,13.6,47.59359,-54.27349
2024-04-17 15:24:01+00:00,315.0,0.01,208.0,0.0,13.6,47.59359,-54.27349
2024-04-17 15:34:01+00:00,315.0,0.01,208.0,0.0,13.6,47.59359,-54.27349
2024-04-17 15:44:01+00:00,315.0,0.01,208.0,0.0,13.6,47.59359,-54.27349
2024-04-17 15:54:01+00:00,315.0,0.01,208.0,0.0,13.6,47.59359,-54.27349
2024-04-17 16:04:01+00:00,315.0,0.01,208.0,0.0,13.6,47.59359,-54.27349
2024-04-17 16:14:01+00:00,315.0,0.01,208.0,0.0,13.53,47.59359,-54.27349
2024-04-17 16:24:01+00:00,315.0,0.01,208.0,0.0,13.53,47.59359,-54.27349
2024-04-17 16:34:01+00:00,315.0,0.01,208.0,0.0,13.53,47.59359,-54.27349
2024-04-17 16:44:01+00:00,315.0,0.01,208.0,0.0,13.53,47.59359,-54.27349
2024-04-17 16:54:01+00:00,315.0,0.01,208.0,0.0,13.53,47.59359,-54.27349
2024-04-17 17:04:01+00:00,315.0,0.01,208.0,0.0,13.53,47.59359,-54.27349
2024-04-17 17:14:00+00:00,315.0,0.01,208.0,0.0,13.37,47.59359,-54.27349
2024-04-17 17:24:00+00:00,315.0,0.01,208.0,0.0,13.37,47.59359,-54.27349
2024-04-17 17:34:00+00:00,315.0,0.01,208.0,0.0,13.37,47.59359,-54.27349
2024-04-17 17:44:00+00:00,315.0,0.01,208.0,0.0,13.37,47.59359,-54.27349
2024-04-17 17:54:00+00:00,315.0,0.01,208.0,0.0,13.37,47.59359,-54.27349
2024-04-17 18:04:00+00:00,315.0,0.01,208.0,0.0,13.37,47.59359,-54.27349
2024-04-17 18:14:00+00:00,315.0,0.01,208.0,0.0,13.29,47.59359,-54.27349
2024-04-17 18:24:00+00:00,315.0,0.01,208.0,0.0,13.29,47.59359,-54.27349
2024-04-17 18:34:00+00:00,315.0,0.01,208.0,0.0,13.29,47.59359,-54.27349
2024-04-17 18:44:00+00:00,315.0,0.01,208.0,0.0,13.29,47.59359,-54.27349
2024-04-17 18:54:00+00:00,315.0,0.01,208.0,0.0,13.29,47.59359,-54.27349
2024-04-17 19:04:00+00:00,315.0,0.01,208.0,0.0,13.29,47.59359,-54.27349
2024-04-17 19:14:00+00:00,315.0,0.01,208.0,0.0,13.21,47.59359,-54.27349
2024-04-17 19:24:00+00:00,315.0,0.01,208.0,0.0,13.21,47.59359,-54.27349
2024-04-17 19:34:00+00:00,315.0,0.01,208.0,0.0,13.21,47.59359,-54.27349
2024-04-17 19:44:00+00:00,315.0,0.01,208.0,0.0,13.21,47.59359,-54.27349
2024-04-17 19:54:00+00:00,315.0,0.01,208.0,0.0,13.21,47.59359,-54.27349
2024-04-17 20:04:00+00:00,315.0,0.01,208.0,0.0,13.21,47.59359,-54.27349
2024-04-17 20:14:00+00:00,315.0,0.01,208.0,0.0,13.05,47.59359,-54.27349
2024-04-17 20:24:00+00:00,315.0,0.01,208.0,0.0,13.05,47.59359,-54.27349
2024-04-17 20:34:00+00:00,315.0,0.01,208.0,0.0,13.05,47.59359,-54.27349
2024-04-17 20:44:00+00:00,315.0,0.01,208.0,0.0,13.05,47.59359,-54.27349
2024-04-17 20:54:00+00:00,315.0,0.01,208.0,0.0,13.05,47.59359,-54.27349
2024-04-17 21:04:00+00:00,315.0,0.01,208.0,0.0,13.05,47.59359,-54.27349
2024-04-17 21:14:00+00:00,315.0,0.01,208.0,0.0,13.21,47.59359,-54.27349
2024-04-17 21:24:00+00:00,315.0,0.01,208.0,0.0,13.21,47.59359,-54.27349
2024-04-17 21:34:00+00:00,315.0,0.01,208.0,0.0,13.21,47.59359,-54.27349
2024-04-17 21:44:00+00:00,315.0,0.01,208.0,0.0,13.21,47.59359,-54.27349
2024-04-17 21:54:00+00:00,315.0,0.01,208.0,0.0,13.21,47.59359,-54.27349
2024-04-17 22:04:00+00:00,315.0,0.01,208.0,0.0,13.21,47.59359,-54.27349
2024-04-17 22:14:00+00:00,315.0,0.01,208.0,0.0,12.65,47.59359,-54.27349
2024-04-17 22:24:00+00:00,315.0,0.01,208.0,0.0,12.65,47.59359,-54.27349
2024-04-17 22:34:00+00:00,315.0,0.01,208.0,0.0,12.65,47.59359,-54.27349
2024-04-17 22:44:00+00:00,315.0,0.01,208.0,0.0,12.65,47.59359,-54.27349
2024-04-17 22:54:00+00:00,315.0,0.01,208.0,0.0,12.65,47.59359,-54.27349
2024-04-17 23:04:00+00:00,315.0,0.01,208.0,0.0,12.65,47.59359,-54.27349
2024-04-17 23:14:01+00:00,315.0,0.01,208.0,0.0,12.25,47.59359,-54.27349
2024-04-17 23:24:01+00:00,315.0,0.01,208.0,0.0,12.25,47.59359,-54.27349
2024-04-17 23:34:01+00:00,315.0,0.01,208.0,0.0,12.25,47.59359,-54.27349
2024-04-17 23:44:01+00:00,315.0,0.01,208.0,0.0,12.25,47.59359,-54.27349
2024-04-17 23:54:01+00:00,315.0,0.01,208.0,0.0,12.25,47.59359,-54.27349
